sat.trackr.live / text

‹ back to catalog

STARLINK-34167

NORAD 64228 · 2025-117AB

PAYLOAD ACTIVE UNKNOWN

§ Identity

Operator
Country
US
Launch date
2025-05-31
Launch site
AFWTR
Launch vehicle
Mass (kg)
RCS (m²)

Purposes: comms

External: N2YO · Heavens-Above · Gunter

§ Orbital elements

Epoch: 2026-09-19T11:42:07.749216Z

Period
93.85 min
Inclination
53.1568°
Eccentricity
0.0001622
Mean motion
15.34399560 rev/d
Perigee alt
461.6 km
Apogee alt
463.8 km
Semi-major
6,840.8 km
B*
8.5245e-4
RAAN
214.7048°
Arg perigee
93.5177°
Mean anomaly
266.6011°
Rev number
7,429

§ Raw data

STARLINK-341671 64228U 25117AB  26262.48758969  .00028535  00000+0  85245-3 0  99912 64228  53.1568 214.7048 0001622  93.5177 266.6011 15.34399560 74290

JSON: /api/v1/satellites/64228 · /tle

For live sub-satellite position, see the globe view (requires WebGL).

§ Visibility from observer

Set your observer location to see the next 7 days of passes ≥ 10°. The values pass through the URL so the page stays shareable.

No JS? Fill the form by hand. The geolocation button needs JavaScript.